Location: Unspecified
(0.0000°N, 0.0000°E)
Time: 16:36:51
(UTC+00:00)

SKYMED 3 - Visible Passes

Search period start: 30 March 2017 00:00
Search period end: 09 April 2017 00:00
Orbit: 621 x 623 km, 97.9° (Epoch: 28 March)

Date Brightness Start Highest point End Pass type
(mag) Time Alt. Az. Time Alt. Az. Time Alt. Az.
30 Mar 7.5 04:56:15 10° SE 04:59:22 19° ENE 05:02:28 10° NNE visible
30 Mar 8.1 18:42:16 10° NW 18:44:11 13° WNW 18:46:06 10° WSW visible
31 Mar 6.5 05:13:25 10° SE 05:17:21 34° ENE 05:21:16 10° NNE visible
01 Apr 5.1 05:31:02 10° SSE 05:35:20 64° ENE 05:39:37 10° N visible
04 Apr 7.8 04:50:44 10° ESE 04:53:23 16° ENE 04:56:02 10° NE visible
04 Apr 7.9 18:35:38 10° NW 18:38:12 16° WNW 18:40:48 10° WSW visible
05 Apr 6.9 05:07:38 10° SE 05:11:22 28° ENE 05:15:05 10° NNE visible
06 Apr 5.6 05:25:08 10° SSE 05:29:21 52° ENE 05:33:33 10° N visible
